COSMOS 1275 DEB

Satellite information

Favourite Embed

Satellite Type and Status

DEBRISIN ORBIT

Key statistics

Satellite COSMOS 1275 DEB at a glance.

Uptime

16166

Days in orbit

Revolutions

≈ 14.1

Per day

Orbit

LEO

Low Earth Orbit

Inclination

83.0

Latest

Satellite identification and parameters

Extended collection of information and parameters for COSMOS 1275 DEB.

Object identification

Identified? True

Debris? True

Object name: COSMOS 1275 DEB

International designator: 1981-053AX

Object number (NORAD): 12703

Object ID (CCSDS): 12703

Country: COMMONWEALTH OF INDEPENDENT STATES (CIS)

Current information (Y/N): Y

RCS size: SMALL

Orbital parameters

Period: 102.077 minutes

Inclination: 82.965 deg

SMA: 7235.124 km

Apoapsis: 867.862 km

Periapsis: 846.115 km

RAAN: 59.0914 deg

Eccentricy: 0.00150288

Argument of periapsis: 100.4127 deg

Mean anomaly: 259.8744 deg

Mean motion: 14.10697291 rev/day

Mean motion (dot): 0.00002184 rev/day2

B* drag term: 0.0012126525 1/REarth

Two-line elements (TLE)

Creation date: Sept. 7, 2025, 3:09 a.m.

Reference frame: TEME

Reference center: EARTH

Epoch: Sept. 6, 2025, 9:41 p.m. UTC

TLE line 0: 0 COSMOS 1275 DEB

TLE line 1: 1 12703U 81053AX 25249.90360950 .00002184 00000-0 12127-2 0 9994

TLE line 2: 2 12703 82.9650 59.0914 0015029 100.4127 259.8744 14.10697291247153

Live tracking on map

Real-time ground track for satellite COSMOS 1275 DEB.

In-orbit conjunctions

A list of the most updated potential collisions computed for object COSMOS 1275 DEB.

Target Orbit TCA Probability of collision Miss distance Type
YAOGAN 4 DEB SSO 2024-09-20 19:18:11 0.0001400897 163.0 (m) DEBRIS
FENGYUN 1C DEB SSO 2024-07-03 01:33:01 0.0001701043 395.0 (m) DEBRIS

Associated space launch

Navigation satellite providing location information for the Tsiklon-B navigation system

COSMOS 1275 DEB was lifted into orbit during the mission ‘Kosmos-3M | Parus 27’, on board a Kosmos-3M space rocket.

The launch took place on June 4, 1981, 3:41 p.m. from 132/2.

For more information about the launch, click the button.

Launch to space Kosmos-3M | Parus 27
Kosmos-3M | Parus 27

Agency: N/A

Status: Launch Successful

Launch date: June 4, 1981, 3:41 p.m. UTC

Rocket: Kosmos-3M

Launch pad: 132/2

Location: Plesetsk Cosmodrome, Russian Federation

...

Latest news about this satellite

There are no fresh news available about this satellite. Check back as we update our databases every day.


Newsletter sign-up

Weekly statistics, charts and insights to help you stay on top of the space industry.